Hourly Data Report for September 05, 2013

All times are specified in Local Standard Time (LST). Add 1 hour to adjust for Daylight Saving Time where and when it is observed.

PETAWAWA AWOS 2
ONTARIO

45°57'00.000" N
77°19'00.000" W
130.10 m
6106396
71625
YWA

Download Data

Hourly Data (September 2013)
Hourly Data Report for September 5, 2013
Temp Definition
°C
Dew Point Temp Definition
°C
Rel Hum Definition
%
Wind Dir Definition
10's deg

Wind Spd Definition
km/h
Visibility Definition
km
Stn Press Definition
kPa
Hmdx Definition


Wind Chill Definition


Weather Definition


TIME
00:00 9.3 6.9 85 27 9 15.0 100.00      
01:00 9.7 7.2 84 29 6 15.0 100.04      
02:00 9.6 6.6 82 28 9 15.0 100.10      
03:00 9.0 5.7 80 27 9 15.0 100.18      
04:00 5.8 4.7 93 24 4 15.0 100.27      
05:00 5.7 4.8 94 26 6 15.0 100.37      
06:00 6.6 5.2 91 27 9 15.0 100.48      
07:00 8.4 5.7 83 27 9 15.0 100.55      
08:00 9.9 5.5 74 31 9 15.0 100.59      
09:00 11.6 3.4 57 32 15 15.0 100.62      
10:00 13.1 3.1 51 28 13 15.0 100.61      
11:00 14.0 3.8 50 30 17 15.0 100.59      
12:00 14.7 3.0 45 27 13 15.0 100.55      
13:00 15.2 1.1 38 30 13 15.0 100.53      
14:00 16.2 0.4 34 29 20 15.0 100.50      
15:00 16.3 -0.7 31 28 15 15.0 100.49      
16:00 17.2 -0.4 30 30 17 15.0 100.50      
17:00 16.2 -0.1 33 30 9 15.0 100.53      
18:00 14.6 2.2 43 32 7 15.0 100.57      
19:00 10.9 4.6 65 25 4 15.0 100.61      
20:00 8.2 5.7 84 24 4 15.0 100.66      
21:00 6.2 4.7 90   0 15.0 100.68      
22:00 6.8 4.0 82 32 4 15.0 100.69      
23:00 3.9 3.3 96 23 6 15.0 100.69      

Notes on Data Quality.

Legend

  • E = Estimated
  • M = Missing
  • NA = Not Available
  • ‡ = Partner data that is not subject to review by the National Climate Archives
Date modified: